Wind_Speed
15 14 12 9 6 5 8 8 7 5 4 4 5 5 6 6 5 4 5 5 4 6 7 7 8 9 9 9 10 10 11 11 12 12 12 13 13 13 13 13 13 13 13 13 14 14 15 15 15
13 12 10 7 5 6 8 7 5 4 4 4 4 4 4 5 4 2 3 3 3 4 5 6 7 7 8 8 8 9 9 9 10 11 11 12 13 13 13 12 12 12 12 12 12 13 14 15 15
11 10 8 6 6 7 7 6 3 3 5 3 3 3 4 3 2 0 1 2 3 4 5 6 7 7 7 8 8 8 8 8 8 9 10 11 12 12 13 12 12 11 11 11 12 12 13 14 14
10 9 6 4 6 7 6 5 3 1 2 1 1 1 2 2 1 1 2 3 5 6 7 7 8 8 8 9 9 9 8 8 8 9 10 10 11 12 12 12 12 12 11 11 11 12 12 13 13
11 8 6 4 5 6 5 4 4 4 3 2 2 2 2 1 2 3 4 5 6 7 8 8 9 9 10 10 11 11 11 11 11 11 11 11 12 12 12 12 12 12 12 12 12 12 12 12 12
13 11 8 6 4 3 3 4 6 8 6 5 4 5 5 4 4 5 7 8 7 9 10 10 10 11 11 12 12 12 12 12 12 12 12 12 13 13 13 13 13 13 12 12 12 12 12 12 12
14 13 11 8 5 2 1 3 6 8 9 8 7 8 8 7 6 6 9 11 9 10 11 11 11 11 11 12 12 12 12 12 12 13 13 13 13 14 13 13 13 13 13 13 13 13 13 13 13
16 15 13 10 7 4 3 5 6 8 11 10 10 10 10 10 8 6 8 11 11 11 12 12 12 11 11 12 12 12 12 12 13 13 13 14 14 14 14 14 14 14 14 14 14 14 15 15 14
17 18 16 14 10 7 6 7 8 10 10 11 11 10 10 11 10 7 7 10 11 11 12 12 11 11 11 11 11 12 13 13 13 14 14 14 14 15 15 15 15 16 16 16 16 16 16 16 16
17 19 19 17 14 10 9 8 11 13 12 10 10 10 10 11 11 10 8 9 11 12 12 12 12 12 12 13 13 14 14 15 15 15 15 16 16 16 17 16 16 16 17 17 18 18 18 18 18
17 19 20 19 16 12 10 10 12 16 16 14 11 11 11 11 13 15 13 11 12 13 14 15 15 15 15 16 17 17 18 18 18 18 18 18 19 19 20 19 19 19 19 19 19 20 20 21 21
20 20 21 21 18 13 11 11 13 17 19 18 16 15 15 15 15 17 18 17 16 17 17 18 20 21 21 21 23 23 22 22 22 22 22 22 22 22 22 23 23 23 23 23 23 23 23 23 23
23 23 23 22 19 16 14 14 15 17 21 23 22 22 21 20 20 20 21 22 22 23 23 24 25 26 27 27 27 27 27 27 27 27 27 27 27 26 26 25 26 27 27 27 26 26 26 26 26
26 25 24 21 19 18 19 19 18 19 23 27 28 28 27 26 25 25 25 26 27 27 28 29 30 31 33 33 33 32 31 31 30 30 30 30 31 31 31 30 30 30 30 30 30 29 29 28 28
29 26 24 21 21 21 24 23 22 23 25 28 31 32 32 32 30 29 29 29 30 31 33 34 35 36 37 38 38 37 36 35 34 33 33 33 34 34 35 35 34 33 33 33 32 32 31 30 30
29 27 25 24 24 24 27 25 24 24 25 27 30 33 35 36 36 35 35 34 35 36 37 38 39 39 40 41 40 41 40 38 37 37 37 36 36 37 37 37 37 36 35 35 34 34 33 32 31
29 29 27 26 26 27 28 27 24 24 25 27 30 33 35 36 38 38 37 37 37 38 38 39 40 40 40 39 41 42 41 40 40 40 39 38 38 38 38 38 38 38 37 36 35 35 34 33 32
27 28 26 24 24 26 26 25 24 24 25 27 31 34 35 35 35 35 34 35 36 37 38 38 40 40 39 37 38 39 39 39 40 40 40 40 40 39 38 39 38 38 39 37 37 36 35 34 33
22 22 21 21 22 23 23 24 24 24 25 28 32 33 33 32 32 31 32 34 35 36 37 39 40 40 40 39 38 38 37 38 39 40 40 40 40 40 39 39 38 39 39 39 38 37 36 34 33
16 19 21 22 24 24 25 25 25 26 26 28 31 31 30 30 30 30 32 32 33 36 39 40 42 42 41 40 41 40 40 39 38 39 39 40 41 41 42 42 41 40 41 41 40 38 37 36 35
15 18 20 22 25 27 28 28 29 30 30 29 29 28 27 27 28 31 33 33 35 38 40 40 41 41 41 41 41 40 40 39 38 38 39 40 41 42 43 42 42 42 43 43 41 40 39 37 36
15 17 18 18 21 24 28 30 28 28 27 26 25 26 26 26 28 31 34 34 36 38 38 38 39 39 39 40 40 40 40 39 38 38 38 39 40 41 41 42 42 43 43 43 42 42 40 38 37
13 15 15 15 16 18 22 25 22 21 21 22 23 24 25 26 29 32 33 35 36 35 35 35 36 37 38 38 39 39 39 39 38 38 38 38 39 40 41 42 43 43 43 43 43 43 42 41 39
11 12 12 13 14 16 17 20 18 18 18 19 20 21 23 25 28 30 32 33 33 34 34 34 35 36 37 38 38 39 39 39 39 39 39 39 39 40 41 42 42 43 43 43 44 44 44 44 42
8 8 8 9 11 12 14 18 17 17 17 18 19 22 23 25 28 29 31 32 32 33 33 33 34 35 36 37 38 39 40 40 40 40 40 40 40 40 41 41 42 43 43 44 45 45 44 45 44
6 6 6 5 6 8 13 16 17 18 19 21 23 25 26 27 28 28 30 30 31 32 32 33 33 34 35 36 37 38 39 40 41 41 41 41 41 41 41 42 43 43 44 45 46 46 45 46 45
6 6 7 7 6 7 11 16 18 20 22 24 26 27 27 28 28 29 30 31 32 33 34 34 34 34 35 36 37 38 39 39 40 41 42 42 42 42 42 43 43 43 44 45 46 45 45 45 44
8 8 9 9 10 8 8 12 18 21 24 26 27 28 28 28 29 30 31 32 33 34 35 35 35 35 36 36 37 38 38 39 40 40 41 41 42 42 43 42 42 43 44 44 44 43 42 41 41
9 10 11 13 14 15 14 12 18 21 23 25 27 28 30 31 31 32 33 33 34 34 35 36 37 37 37 37 37 37 37 38 38 39 39 40 40 41 41 41 41 41 40 40 40 39 39 39 38
12 13 15 17 18 19 20 19 21 23 25 27 29 31 33 34 35 35 35 36 35 35 36 37 37 37 38 38 37 37 36 36 36 36 37 38 38 38 38 38 38 38 37 36 35 35 34 34 34
Wind_Direction
129 124 118 112 105 106 94 96 100 113 119 102 78 75 90 106 111 110 97 83 64 52 44 45 44 42 41 41 40 38 35 31 26 21 17 13 11 10 9 8 8 9 10 13 14 16 17 18 19
134 126 121 117 101 100 79 81 97 119 123 114 107 103 95 95 110 125 93 69 38 32 24 24 26 28 29 29 29 29 28 25 21 17 12 8 6 4 3 1 2 3 3 4 6 8 11 13 15
145 136 134 121 94 86 68 69 77 131 134 130 130 127 116 106 111 63 40 17 359 0 -0 1 5 8 9 9 9 9 9 9 8 6 3 1 359 357 356 354 353 354 354 355 356 359 2 5 7
170 161 170 164 98 76 59 46 40 38 120 122 124 142 140 123 58 326 336 340 341 341 341 345 347 349 348 348 347 345 344 344 344 344 345 346 347 346 346 345 344 343 344 345 346 348 351 355 358
193 187 209 219 113 90 59 12 342 326 340 355 336 307 278 264 302 309 307 315 328 329 330 331 332 333 333 332 330 329 327 324 324 327 330 332 334 335 335 335 333 332 333 335 337 338 340 343 347
202 205 224 227 164 109 50 348 323 320 311 321 316 300 285 278 288 299 300 302 315 317 317 318 319 320 321 322 321 320 319 317 316 319 322 324 325 326 326 326 326 326 326 326 328 330 332 333 334
204 212 225 220 195 182 335 313 321 315 309 306 305 299 291 283 279 290 297 297 301 303 305 307 309 312 313 314 314 314 314 314 314 314 316 319 320 320 320 320 319 318 319 319 320 322 323 324 326
206 212 221 218 201 209 254 291 308 301 300 301 304 303 300 293 285 284 287 290 292 295 297 299 301 304 306 306 306 308 309 310 309 309 311 314 315 315 315 316 314 312 313 314 314 316 317 318 319
209 214 221 223 215 217 238 277 295 293 291 295 297 298 299 296 292 286 281 285 291 293 294 294 294 296 298 299 300 302 303 304 303 303 304 307 308 309 308 309 309 308 308 309 309 310 311 311 312
213 220 227 232 231 228 233 258 281 288 289 291 289 289 296 297 296 295 292 290 293 295 296 295 294 294 294 294 294 295 297 297 297 297 298 300 300 301 301 300 300 300 301 303 304 304 305 304 304
216 222 233 238 242 247 247 256 277 288 294 297 292 291 293 292 293 295 296 295 295 296 297 296 295 293 291 291 290 291 291 291 292 293 293 294 294 295 295 295 294 294 295 296 298 300 300 299 298
220 225 236 242 249 260 269 269 274 283 290 293 290 287 285 285 287 291 294 295 294 293 293 294 293 292 290 289 289 289 289 289 289 290 290 290 290 290 290 291 291 292 292 292 292 293 295 295 293
228 230 238 246 253 262 270 273 276 283 287 289 288 287 286 286 286 287 289 290 290 289 288 288 288 287 286 285 285 286 287 288 288 288 288 288 287 286 285 285 286 286 287 287 287 288 289 291 289
238 239 245 254 264 269 269 267 271 276 280 283 286 287 287 287 285 284 285 286 287 287 286 285 284 283 282 281 279 279 280 280 282 284 285 285 286 285 284 282 280 280 281 281 282 283 285 287 287
243 245 248 253 258 262 264 266 269 270 274 280 284 287 289 289 288 287 287 288 287 287 286 285 284 283 281 280 278 276 275 275 277 278 279 280 280 281 281 280 279 278 278 279 280 280 281 282 283
245 249 250 250 252 255 260 265 267 269 273 279 284 287 290 292 293 293 294 293 292 290 288 287 284 282 280 281 279 277 277 277 277 276 276 276 276 276 277 278 278 277 277 277 278 278 279 280 281
243 246 248 248 251 252 257 264 267 270 275 280 282 283 285 288 290 293 296 297 296 294 291 288 285 282 281 279 278 276 278 279 279 278 277 276 276 276 276 277 276 276 276 276 276 277 277 278 279
240 243 244 242 245 251 257 265 268 271 274 280 281 280 281 283 287 292 297 299 299 297 294 291 288 286 284 282 280 279 278 278 278 279 279 278 279 278 278 278 277 276 275 275 275 277 279 279 278
236 241 240 238 241 246 250 255 262 268 276 280 277 276 278 283 289 295 299 301 300 299 298 296 293 290 287 285 284 282 281 280 279 279 279 279 279 280 280 281 279 279 279 278 277 278 278 279 279
229 235 232 229 235 240 244 251 260 267 274 273 271 273 279 286 293 298 299 299 296 297 298 296 294 292 290 288 286 284 283 280 278 278 278 278 278 278 279 280 280 280 282 282 281 277 276 279 280
230 237 236 233 233 240 248 254 261 267 270 269 270 275 280 286 292 296 298 297 296 296 296 295 293 292 291 291 289 287 285 283 281 279 278 277 277 277 278 279 280 280 281 282 282 281 282 280 281
242 249 251 248 241 239 249 255 258 264 267 269 270 275 280 286 292 294 294 295 296 296 295 294 294 294 293 292 290 290 289 287 285 283 281 279 279 278 279 280 280 280 280 282 282 283 281 281 280
254 260 262 260 254 249 251 261 265 266 271 272 273 278 283 287 288 291 295 297 298 297 295 294 294 294 294 293 292 291 290 289 287 286 284 282 281 280 280 280 280 280 280 280 280 281 280 279 278
266 266 266 265 261 255 256 261 268 275 281 284 282 287 288 290 293 297 299 300 301 301 300 298 297 296 295 294 293 292 290 289 288 287 286 284 283 282 282 281 281 281 281 280 280 279 278 277 277
282 280 272 262 261 261 263 267 275 284 289 291 291 294 295 298 300 302 304 305 306 307 306 304 301 300 298 296 294 292 290 289 288 287 286 285 284 284 283 283 282 282 281 281 280 279 278 276 275
305 302 300 286 265 260 265 271 279 285 289 293 297 300 302 304 307 309 310 311 312 312 312 311 308 305 302 299 297 295 293 290 289 288 287 285 284 284 284 283 283 282 280 280 279 278 277 276 274
299 305 309 309 298 286 275 280 284 289 294 297 300 304 308 312 315 315 315 315 314 313 313 313 312 310 307 304 301 299 297 294 292 290 288 287 286 285 284 285 284 283 281 280 278 277 276 274 271
286 298 305 311 310 302 286 291 293 292 295 298 303 308 312 316 317 316 316 317 317 316 316 315 315 313 311 309 306 302 299 296 294 292 291 289 287 286 286 286 285 284 283 280 277 276 273 271 269
287 297 303 309 314 311 308 308 300 297 298 301 306 310 313 315 314 314 315 317 317 317 316 315 314 313 312 311 310 306 303 300 297 295 293 292 290 288 287 287 286 285 285 281 278 275 270 268 266
300 304 302 301 304 305 305 305 298 300 303 307 311 312 312 312 312 313 313 313 314 313 312 312 312 312 312 312 311 309 306 303 301 299 297 295 293 291 289 288 287 287 285 281 279 274 269 265 263
Height
5937 5936 5936 5937 5937 5937 5935 5935 5935 5935 5936 5937 5938 5938 5938 5939 5939 5940 5938 5936 5936 5936 5935 5935 5935 5934 5933 5933 5932 5931 5930 5929 5928 5927 5925 5924 5922 5921 5919 5918 5916 5915 5913 5912 5910 5908 5907 5905 5903
5937 5937 5938 5938 5937 5936 5936 5936 5936 5937 5937 5937 5938 5939 5939 5939 5938 5938 5938 5937 5937 5937 5937 5937 5936 5936 5935 5934 5933 5932 5931 5930 5929 5927 5926 5925 5923 5922 5920 5918 5917 5915 5914 5912 5911 5909 5907 5906 5904
5938 5937 5939 5938 5936 5936 5936 5936 5936 5937 5938 5938 5939 5939 5940 5940 5939 5938 5939 5939 5938 5938 5938 5938 5937 5937 5936 5935 5934 5933 5932 5930 5929 5928 5926 5925 5924 5922 5921 5919 5917 5916 5914 5913 5911 5909 5908 5906 5904
5938 5939 5939 5939 5936 5935 5935 5936 5936 5937 5938 5938 5939 5939 5940 5940 5939 5939 5939 5939 5939 5939 5939 5938 5938 5937 5937 5936 5935 5933 5932 5931 5929 5928 5927 5925 5924 5922 5921 5919 5918 5916 5914 5913 5911 5910 5908 5906 5905
5939 5939 5940 5938 5936 5935 5935 5935 5936 5937 5938 5939 5939 5939 5940 5940 5939 5938 5938 5939 5939 5938 5938 5938 5937 5937 5936 5935 5934 5933 5932 5930 5929 5928 5926 5925 5923 5922 5921 5919 5917 5916 5914 5913 5911 5910 5908 5906 5905
5939 5939 5939 5937 5936 5935 5935 5935 5936 5936 5937 5939 5939 5939 5939 5940 5939 5938 5937 5938 5938 5937 5937 5937 5936 5936 5935 5934 5933 5932 5931 5929 5928 5927 5925 5924 5923 5921 5920 5918 5917 5915 5913 5912 5910 5909 5907 5906 5904
5938 5937 5937 5936 5935 5934 5935 5935 5936 5936 5936 5937 5938 5937 5938 5939 5940 5939 5936 5936 5937 5936 5936 5935 5935 5934 5933 5932 5931 5930 5929 5928 5926 5925 5924 5922 5921 5920 5918 5917 5915 5913 5912 5910 5909 5907 5906 5904 5903
5935 5936 5935 5935 5934 5934 5934 5934 5935 5935 5935 5936 5936 5936 5936 5936 5938 5938 5936 5934 5934 5934 5934 5933 5933 5932 5931 5930 5929 5928 5927 5926 5924 5923 5922 5920 5919 5917 5916 5914 5913 5911 5910 5908 5907 5905 5904 5902 5901
5933 5934 5933 5933 5933 5933 5933 5933 5933 5933 5934 5934 5935 5935 5934 5934 5935 5937 5936 5934 5933 5933 5932 5931 5931 5930 5929 5928 5926 5925 5924 5923 5922 5920 5919 5918 5916 5915 5913 5912 5910 5909 5907 5906 5904 5903 5901 5900 5899
5931 5931 5931 5931 5931 5931 5932 5932 5931 5931 5932 5933 5933 5933 5933 5932 5932 5933 5935 5934 5932 5931 5930 5929 5928 5927 5926 5925 5924 5922 5921 5920 5918 5917 5916 5914 5913 5911 5910 5908 5907 5905 5904 5902 5901 5899 5898 5897 5895
5928 5929 5929 5929 5929 5930 5931 5931 5930 5929 5929 5931 5931 5931 5931 5931 5930 5930 5931 5932 5931 5930 5928 5927 5926 5925 5923 5922 5920 5919 5917 5916 5915 5913 5912 5910 5909 5907 5905 5904 5903 5901 5900 5898 5897 5895 5894 5893 5891
5925 5926 5926 5927 5928 5929 5929 5929 5929 5927 5927 5927 5928 5929 5929 5929 5929 5928 5927 5928 5928 5928 5926 5924 5922 5921 5920 5918 5916 5914 5913 5911 5910 5909 5907 5905 5904 5903 5901 5899 5897 5895 5894 5893 5892 5891 5889 5888 5887
5922 5923 5923 5925 5926 5927 5927 5927 5927 5926 5924 5923 5924 5924 5925 5925 5926 5925 5924 5923 5924 5923 5923 5921 5919 5916 5914 5913 5911 5908 5907 5905 5904 5903 5901 5899 5898 5896 5895 5894 5892 5890 5888 5887 5886 5884 5883 5882 5881
5918 5920 5921 5923 5924 5924 5924 5924 5924 5923 5920 5918 5918 5919 5919 5920 5920 5921 5920 5919 5918 5917 5916 5915 5913 5911 5908 5906 5904 5902 5900 5899 5897 5895 5894 5892 5890 5888 5887 5887 5885 5884 5882 5880 5879 5878 5876 5875 5874
5914 5917 5919 5920 5920 5919 5919 5920 5920 5919 5917 5915 5914 5913 5913 5913 5913 5913 5913 5912 5911 5909 5907 5906 5904 5902 5899 5896 5893 5891 5891 5891 5890 5889 5887 5885 5883 5880 5878 5877 5877 5876 5874 5873 5871 5870 5869 5868 5866
5909 5912 5914 5915 5914 5913 5914 5915 5915 5914 5913 5911 5910 5908 5906 5905 5905 5905 5904 5904 5902 5900 5898 5896 5894 5891 5888 5885 5882 5880 5878 5879 5879 5879 5878 5876 5875 5872 5870 5868 5866 5865 5864 5863 5862 5861 5860 5859 5858
5903 5905 5906 5908 5908 5907 5907 5907 5908 5908 5908 5907 5906 5903 5902 5900 5899 5898 5897 5895 5893 5891 5888 5885 5883 5879 5876 5873 5872 5868 5866 5866 5867 5866 5866 5865 5864 5862 5860 5858 5856 5854 5853 5852 5851 5851 5850 5849 5849
5897 5899 5900 5902 5902 5902 5902 5902 5902 5903 5903 5902 5900 5898 5896 5895 5894 5893 5891 5889 5885 5882 5879 5875 5872 5868 5865 5861 5861 5859 5857 5857 5856 5855 5854 5853 5852 5851 5850 5848 5846 5844 5842 5841 5840 5840 5840 5839 5839
5892 5893 5895 5896 5896 5896 5896 5896 5896 5897 5897 5896 5893 5891 5890 5890 5889 5888 5886 5883 5879 5875 5871 5867 5864 5859 5857 5855 5852 5851 5849 5849 5847 5846 5845 5844 5842 5841 5840 5838 5836 5834 5832 5831 5830 5830 5830 5830 5829
5887 5888 5889 5890 5890 5890 5890 5891 5891 5891 5890 5888 5886 5885 5885 5884 5883 5882 5880 5877 5873 5869 5865 5860 5856 5851 5848 5845 5843 5842 5841 5840 5839 5838 5836 5835 5833 5831 5829 5828 5826 5824 5823 5822 5820 5819 5819 5820 5820
5883 5883 5884 5885 5886 5886 5886 5887 5886 5885 5884 5883 5881 5880 5879 5879 5878 5876 5873 5870 5866 5862 5858 5853 5848 5844 5839 5836 5834 5832 5830 5829 5829 5828 5826 5824 5822 5820 5819 5817 5816 5815 5813 5812 5811 5810 5809 5809 5810
5879 5879 5880 5880 5882 5882 5882 5881 5881 5879 5878 5877 5876 5875 5874 5873 5871 5869 5866 5863 5859 5855 5850 5845 5840 5836 5832 5828 5825 5823 5821 5820 5818 5817 5815 5814 5812 5810 5809 5807 5806 5804 5803 5802 5801 5800 5800 5799 5800
5875 5875 5875 5875 5876 5876 5876 5874 5875 5873 5872 5871 5870 5869 5868 5867 5865 5862 5859 5855 5851 5847 5842 5837 5833 5828 5824 5820 5817 5814 5812 5810 5808 5807 5805 5804 5802 5800 5799 5797 5796 5794 5793 5792 5791 5790 5789 5789 5790
5871 5871 5871 5870 5870 5871 5870 5869 5868 5867 5866 5865 5864 5863 5861 5859 5857 5854 5851 5847 5842 5837 5833 5828 5824 5820 5817 5813 5809 5806 5803 5801 5799 5797 5795 5793 5792 5790 5788 5786 5785 5783 5782 5781 5779 5779 5778 5778 5779
5868 5868 5868 5867 5866 5866 5865 5863 5863 5861 5860 5859 5858 5856 5854 5852 5849 5846 5842 5838 5833 5828 5824 5820 5816 5812 5808 5804 5801 5797 5794 5792 5789 5787 5785 5783 5781 5779 5778 5776 5774 5772 5771 5769 5768 5767 5766 5766 5767
5865 5865 5865 5864 5863 5862 5860 5858 5858 5856 5854 5852 5850 5848 5846 5844 5841 5838 5833 5829 5824 5820 5815 5811 5807 5803 5800 5796 5792 5788 5785 5781 5779 5776 5774 5772 5770 5768 5766 5764 5762 5760 5759 5757 5755 5755 5754 5754 5754
5863 5862 5862 5861 5860 5859 5857 5854 5852 5850 5848 5846 5844 5841 5839 5836 5833 5829 5825 5821 5816 5812 5808 5804 5800 5796 5791 5787 5783 5779 5775 5771 5768 5765 5762 5760 5758 5756 5754 5752 5750 5748 5746 5744 5743 5742 5741 5741 5742
5861 5860 5859 5857 5856 5855 5854 5851 5849 5846 5843 5841 5838 5835 5833 5830 5826 5822 5818 5814 5810 5805 5800 5796 5792 5788 5783 5779 5774 5770 5766 5762 5758 5755 5752 5749 5747 5744 5742 5740 5738 5735 5733 5731 5729 5729 5728 5728 5729
5859 5858 5855 5854 5852 5851 5849 5851 5845 5842 5839 5836 5833 5830 5827 5824 5820 5816 5811 5807 5803 5798 5793 5788 5784 5780 5775 5771 5766 5761 5757 5753 5749 5745 5742 5739 5736 5733 5730 5728 5725 5723 5720 5717 5716 5716 5716 5716 5717
5856 5854 5853 5851 5849 5847 5844 5846 5839 5836 5833 5830 5827 5824 5820 5816 5812 5808 5804 5800 5796 5791 5786 5781 5776 5772 5767 5762 5758 5753 5748 5744 5740 5736 5732 5729 5725 5722 5719 5716 5713 5710 5708 5706 5704 5703 5704 5704 5706